| time (UTC) | temp F | wind direction | speed MPH | gust MPH | rain 1hr in | rain 24hr in | rain mn in | humidity % | barometer mb |
| 20260506001838 | 57 | 335 | 3.0 | 8.0 | 0.31 | 6.26 | 0.06 | 92 | 1010.0 |
| 20260506001334 | 57 | 9 | 2.0 | 9.0 | 0.31 | 6.26 | 0.06 | 92 | 1010.1 |
| 20260506000832 | 57 | 315 | 7.0 | 9.0 | 0.28 | 6.22 | 0.06 | 92 | 1010.4 |
| 20260506000330 | 57 | 267 | 4.0 | 7.0 | 0.24 | 6.18 | 0.05 | 92 | 1010.6 |
| 20260505235824 | 57 | 244 | 5.0 | 7.0 | 0.24 | 7.91 | 0.05 | 92 | 1010.6 |
| 20260505235340 | 57 | 247 | 4.0 | 9.0 | 0.24 | 7.91 | 0.05 | 92 | 1010.5 |
| 20260505234833 | 57 | 268 | 3.0 | 6.0 | 0.16 | 7.83 | 0.03 | 91 | 1010.5 |
| 20260505234332 | 57 | 246 | 1.0 | 5.0 | 0.12 | 7.80 | 0.02 | 91 | 1010.6 |
| 20260505233826 | 58 | 322 | 3.0 | 5.0 | 0.00 | 7.68 | 0.00 | 89 | 1010.5 |
| 20260505233324 | 58 | 316 | 3.0 | 5.0 | 0.00 | 7.68 | 0.00 | 88 | 1010.4 |
| 20260505232839 | 58 | 334 | 0.0 | 4.0 | 0.00 | 7.68 | 0.00 | 88 | 1010.4 |
| 20260505232335 | 58 | 333 | 1.0 | 5.0 | 0.00 | 7.68 | 0.00 | 88 | 1010.5 |
| 20260505231833 | 57 | 333 | 3.0 | 5.0 | 0.00 | 7.68 | 0.00 | 89 | 1010.5 |
| 20260505231326 | 57 | 310 | 4.0 | 5.0 | 0.00 | 7.68 | 0.00 | 90 | 1010.6 |
| 20260505230825 | 57 | 309 | 4.0 | 6.0 | 0.00 | 7.68 | 0.00 | 90 | 1010.7 |
| 20260505230345 | 57 | 313 | 3.0 | 5.0 | 0.00 | 7.68 | 0.00 | 90 | 1010.6 |
| 20260505225833 | 57 | 317 | 2.0 | 4.0 | 0.00 | 9.41 | 0.00 | 90 | 1010.5 |
| 20260505225329 | 57 | 317 | 3.0 | 4.0 | 0.00 | 9.41 | 0.00 | 91 | 1010.5 |
| 20260505224841 | 57 | 317 | 3.0 | 4.0 | 0.00 | 9.41 | 0.00 | 91 | 1010.7 |
| 20260505224339 | 57 | 316 | 3.0 | 5.0 | 0.00 | 9.41 | 0.00 | 91 | 1010.7 |
| 20260505223836 | 57 | 319 | 3.0 | 5.0 | 0.00 | 9.41 | 0.00 | 91 | 1010.8 |
| 20260505223329 | 57 | 360 | 1.0 | 4.0 | 0.00 | 9.41 | 0.00 | 91 | 1011.0 |
| 20260505222824 | 57 | 329 | 2.0 | 4.0 | 0.00 | 9.41 | 0.00 | 91 | 1011.1 |
| 20260505222340 | 57 | 5 | 1.0 | 3.0 | 0.00 | 9.41 | 0.00 | 91 | 1011.1 |
| 20260505221836 | 57 | 337 | 3.0 | 3.0 | 0.00 | 9.41 | 0.00 | 91 | 1011.2 |
| 20260505221334 | 57 | 329 | 2.0 | 5.0 | 0.00 | 9.41 | 0.00 | 91 | 1011.3 |
| 20260505220829 | 57 | 319 | 3.0 | 5.0 | 0.00 | 9.41 | 0.00 | 91 | 1011.4 |
| 20260505220328 | 57 | 320 | 4.0 | 5.0 | 0.00 | 9.41 | 0.00 | 91 | 1011.7 |
| 20260505215831 | 57 | 336 | 2.0 | 3.0 | 0.00 | 9.45 | 1.88 | 92 | 1011.8 |
| 20260505215329 | 57 | 342 | 2.0 | 3.0 | 0.00 | 9.45 | 1.88 | 92 | 1011.7 |
| 20260505214826 | 57 | 338 | 2.0 | 3.0 | 0.00 | 9.45 | 1.88 | 92 | 1011.8 |
| 20260505214341 | 57 | 340 | 1.0 | 4.0 | 0.00 | 9.45 | 1.88 | 92 | 1011.8 |
| 20260505213837 | 57 | 325 | 2.0 | 5.0 | 0.00 | 9.45 | 1.88 | 92 | 1011.9 |
| 20260505213334 | 57 | 313 | 4.0 | 6.0 | 0.00 | 9.45 | 1.88 | 92 | 1011.8 |
| 20260505212831 | 57 | 318 | 5.0 | 6.0 | 0.00 | 9.45 | 1.88 | 93 | 1011.9 |
| 20260505212333 | 57 | 321 | 3.0 | 4.0 | 0.00 | 9.45 | 1.88 | 92 | 1012.0 |
| 20260505211826 | 56 | 319 | 2.0 | 4.0 | 0.00 | 9.45 | 1.88 | 93 | 1012.0 |
| 20260505211344 | 56 | 13 | 2.0 | 4.0 | 0.00 | 9.45 | 1.88 | 93 | 1011.9 |
| 20260505210838 | 56 | 319 | 3.0 | 5.0 | 0.00 | 9.45 | 1.88 | 93 | 1012.0 |
| 20260505210334 | 57 | 326 | 4.0 | 5.0 | 0.00 | 9.45 | 1.88 | 93 | 1012.1 |
| 20260505205828 | 57 | 309 | 4.0 | 4.0 | 0.00 | 9.45 | 1.88 | 92 | 1012.2 |
| 20260505205344 | 56 | 313 | 2.0 | 4.0 | 0.00 | 9.45 | 1.88 | 92 | 1012.2 |
| 20260505204842 | 56 | 334 | 2.0 | 4.0 | 0.00 | 9.45 | 1.88 | 92 | 1012.2 |
| 20260505204334 | 56 | 329 | 2.0 | 4.0 | 0.00 | 9.45 | 1.88 | 93 | 1012.2 |
| 20260505203837 | 56 | 313 | 2.0 | 4.0 | 0.00 | 9.45 | 1.88 | 92 | 1012.2 |
| 20260505203338 | 56 | 307 | 3.0 | 4.0 | 0.00 | 9.45 | 1.88 | 92 | 1012.2 |
| 20260505202830 | 56 | 321 | 3.0 | 4.0 | 0.00 | 9.45 | 1.88 | 92 | 1012.2 |
| 20260505202330 | 56 | 325 | 2.0 | 4.0 | 0.00 | 9.45 | 1.88 | 92 | 1012.2 |
| 20260505201825 | 56 | 327 | 2.0 | 5.0 | 0.00 | 9.45 | 1.88 | 92 | 1012.1 |
| 20260505201344 | 56 | 336 | 2.0 | 4.0 | 0.00 | 9.45 | 1.88 | 92 | 1012.1 |
| 20260505200839 | 56 | 319 | 3.0 | 4.0 | 0.00 | 9.45 | 1.88 | 92 | 1012.1 |
| 20260505200330 | 55 | 316 | 3.0 | 4.0 | 0.00 | 9.45 | 1.88 | 92 | 1012.1 |
| 20260505195842 | 55 | 317 | 2.0 | 4.0 | 0.00 | 9.45 | 1.88 | 92 | 1012.1 |
| 20260505195336 | 55 | 301 | 3.0 | 6.0 | 0.00 | 9.45 | 1.88 | 91 | 1012.1 |
| 20260505194834 | 55 | 313 | 3.0 | 6.0 | 0.00 | 9.45 | 1.88 | 91 | 1012.0 |
| 20260505194333 | 56 | 304 | 4.0 | 6.0 | 0.00 | 9.45 | 1.88 | 90 | 1012.0 |
| 20260505193826 | 56 | 331 | 2.0 | 9.0 | 0.00 | 9.45 | 1.88 | 91 | 1011.9 |
| 20260505193325 | 56 | 50 | 3.0 | 8.0 | 0.00 | 9.45 | 1.88 | 91 | 1011.9 |
| 20260505192837 | 55 | 11 | 4.0 | 8.0 | 0.00 | 9.45 | 1.88 | 91 | 1011.9 |
| 20260505192332 | 56 | 338 | 3.0 | 6.0 | 0.00 | 9.45 | 1.88 | 91 | 1011.7 |
| 20260505191831 | 55 | 360 | 2.0 | 4.0 | 0.00 | 9.45 | 1.88 | 91 | 1011.8 |
| 20260505191327 | 55 | 350 | 3.0 | 5.0 | 0.00 | 9.45 | 1.88 | 91 | 1011.8 |
| 20260505190827 | 56 | 341 | 3.0 | 5.0 | 0.00 | 9.45 | 1.88 | 92 | 1011.7 |
| 20260505190342 | 55 | 340 | 3.0 | 5.0 | 0.00 | 9.45 | 1.88 | 92 | 1011.7 |
| 20260505185838 | 55 | 338 | 3.0 | 5.0 | 0.00 | 9.45 | 1.88 | 92 | 1011.6 |
| 20260505185335 | 56 | 338 | 3.0 | 5.0 | 0.00 | 9.45 | 1.88 | 91 | 1011.7 |
| 20260505184829 | 56 | 327 | 2.0 | 4.0 | 0.00 | 9.45 | 1.88 | 91 | 1011.7 |
| 20260505184343 | 56 | 315 | 3.0 | 5.0 | 0.00 | 9.45 | 1.88 | 92 | 1011.7 |
| 20260505183838 | 56 | 49 | 2.0 | 5.0 | 0.00 | 9.45 | 1.88 | 92 | 1011.6 |
| 20260505183336 | 56 | 338 | 2.0 | 6.0 | 0.00 | 9.45 | 1.88 | 91 | 1011.6 |
| 20260505182833 | 56 | 321 | 4.0 | 5.0 | 0.00 | 9.45 | 1.88 | 91 | 1011.6 |
| 20260505182326 | 57 | 327 | 3.0 | 5.0 | 0.00 | 9.45 | 1.88 | 91 | 1011.6 |
| 20260505181843 | 57 | 345 | 3.0 | 6.0 | 0.00 | 9.45 | 1.88 | 90 | 1011.6 |
| 20260505181337 | 58 | 319 | 5.0 | 6.0 | 0.00 | 9.45 | 1.88 | 90 | 1011.6 |
| 20260505180833 | 58 | 333 | 3.0 | 5.0 | 0.00 | 9.45 | 1.88 | 89 | 1011.7 |
| 20260505180333 | 59 | 325 | 3.0 | 4.0 | 0.00 | 9.45 | 1.88 | 89 | 1011.7 |
| 20260505175827 | 59 | 341 | 0.0 | 5.0 | 0.00 | 9.45 | 1.88 | 88 | 1011.7 |
| 20260505175325 | 59 | 323 | 2.0 | 5.0 | 0.00 | 9.45 | 1.88 | 87 | 1011.7 |
| 20260505174841 | 60 | 323 | 3.0 | 4.0 | 0.00 | 9.45 | 1.88 | 86 | 1011.8 |
| 20260505174340 | 60 | 317 | 2.0 | 3.0 | 0.00 | 9.45 | 1.88 | 85 | 1011.9 |
| 20260505173841 | 60 | 308 | 1.0 | 3.0 | 0.00 | 9.45 | 1.88 | 85 | 1011.9 |
| 20260505173338 | 60 | 332 | 2.0 | 5.0 | 0.00 | 9.45 | 1.88 | 85 | 1011.9 |
| 20260505172835 | 60 | 330 | 3.0 | 5.0 | 0.00 | 9.45 | 1.88 | 85 | 1011.9 |
| 20260505172331 | 61 | 307 | 3.0 | 5.0 | 0.00 | 9.45 | 1.88 | 83 | 1011.7 |
| 20260505171830 | 61 | 322 | 3.0 | 4.0 | 0.00 | 9.45 | 1.88 | 81 | 1011.6 |
| 20260505171326 | 62 | 312 | 1.0 | 3.0 | 0.00 | 9.45 | 1.88 | 79 | 1011.7 |
| 20260505170840 | 62 | 223 | 1.0 | 4.0 | 0.00 | 9.45 | 1.88 | 78 | 1011.7 |
| 20260505170338 | 62 | 225 | 3.0 | 4.0 | 0.00 | 9.45 | 1.88 | 76 | 1011.8 |
| 20260505165834 | 63 | 219 | 2.0 | 3.0 | 0.00 | 9.45 | 1.88 | 77 | 1011.8 |
| 20260505165330 | 63 | 188 | 1.0 | 3.0 | 0.00 | 9.45 | 1.88 | 77 | 1011.7 |
| 20260505164829 | 62 | 258 | 2.0 | 3.0 | 0.00 | 9.45 | 1.88 | 77 | 1011.8 |
| 20260505164341 | 62 | 250 | 2.0 | 3.0 | 0.00 | 9.45 | 1.88 | 77 | 1011.8 |
| 20260505163839 | 63 | 224 | 2.0 | 3.0 | 0.00 | 9.45 | 1.88 | 77 | 1011.8 |
| 20260505163334 | 63 | 193 | 1.0 | 2.0 | 0.00 | 9.45 | 1.88 | 77 | 1011.9 |
| 20260505162832 | 62 | 180 | 1.0 | 3.0 | 0.00 | 9.45 | 1.88 | 76 | 1012.0 |
| 20260505162329 | 62 | 171 | 1.0 | 4.0 | 0.00 | 9.45 | 1.88 | 75 | 1011.9 |
| 20260505161825 | 62 | 195 | 2.0 | 4.0 | 0.00 | 9.45 | 1.88 | 75 | 1011.9 |
| 20260505161341 | 63 | 207 | 2.0 | 4.0 | 0.00 | 9.45 | 1.88 | 75 | 1012.0 |
| 20260505160835 | 63 | 213 | 2.0 | 4.0 | 0.00 | 9.45 | 1.88 | 75 | 1011.9 |
| 20260505160334 | 63 | 207 | 2.0 | 3.0 | 0.00 | 9.45 | 1.88 | 75 | 1012.0 |
| 20260505153338 | 62 | 307 | 1.0 | 2.0 | 0.00 | 9.45 | 1.88 | 80 | 1011.9 |
| 20260505152829 | 62 | 307 | 0.0 | 0.0 | 0.00 | 9.45 | 1.88 | 82 | 1011.9 |
| 20260505152326 | 62 | 307 | 0.0 | 0.0 | 0.00 | 9.45 | 1.88 | 83 | 1011.9 |
| 20260505151839 | 62 | 307 | 0.0 | 2.0 | 0.00 | 9.45 | 1.88 | 84 | 1011.9 |
| 20260505151336 | 62 | 307 | 0.0 | 2.0 | 0.00 | 9.45 | 1.88 | 84 | 1012.0 |
| 20260505150836 | 62 | 22 | 1.0 | 3.0 | 0.00 | 9.45 | 1.88 | 84 | 1012.0 |
| 20260505150330 | 62 | 36 | 2.0 | 3.0 | 0.00 | 9.45 | 1.88 | 84 | 1012.0 |
| 20260505140342 | 61 | 178 | 0.0 | 0.0 | 0.00 | 9.45 | 1.88 | 85 | 1012.2 |
| 20260505124825 | 61 | 240 | 0.0 | 2.0 | 0.00 | 9.45 | 1.88 | 80 | 1012.2 |
| 20260505124340 | 61 | 240 | 2.0 | 3.0 | 0.00 | 9.45 | 1.88 | 80 | 1012.4 |
| 20260505123839 | 61 | 232 | 1.0 | 3.0 | 0.00 | 9.45 | 1.88 | 80 | 1012.3 |
| 20260505123333 | 61 | 214 | 0.0 | 3.0 | 0.00 | 9.45 | 1.88 | 79 | 1012.4 |
| 20260505122829 | 61 | 214 | 1.0 | 3.0 | 0.00 | 9.45 | 1.88 | 79 | 1012.3 |
| 20260505122331 | 61 | 205 | 1.0 | 3.0 | 0.00 | 9.45 | 1.88 | 81 | 1012.3 |
| 20260505121825 | 61 | 193 | 1.0 | 3.0 | 0.00 | 9.45 | 1.88 | 81 | 1012.3 |
| 20260505121326 | 61 | 163 | 2.0 | 3.0 | 0.00 | 9.45 | 1.88 | 81 | 1012.4 |
| 20260505120839 | 61 | 217 | 0.0 | 3.0 | 0.00 | 9.45 | 1.88 | 81 | 1012.3 |
| 20260505120338 | 61 | 217 | 2.0 | 3.0 | 0.00 | 9.45 | 1.88 | 81 | 1012.4 |
| 20260505115838 | 61 | 136 | 1.0 | 3.0 | 0.00 | 9.45 | 1.88 | 81 | 1012.3 |
| 20260505115335 | 61 | 221 | 1.0 | 4.0 | 0.00 | 9.45 | 1.88 | 82 | 1012.3 |
| 20260505114834 | 61 | 221 | 3.0 | 4.0 | 0.00 | 9.45 | 1.88 | 82 | 1012.3 |
| 20260505114329 | 61 | 197 | 2.0 | 4.0 | 0.00 | 9.45 | 1.88 | 82 | 1012.4 |
| 20260505113828 | 61 | 225 | 0.0 | 0.0 | 0.00 | 9.45 | 1.88 | 81 | 1012.4 |
| 20260505113325 | 62 | 111 | 0.0 | 0.0 | 0.00 | 9.45 | 1.88 | 81 | 1012.3 |
| 20260505112839 | 62 | 100 | 0.0 | 0.0 | 0.00 | 9.45 | 1.88 | 81 | 1012.3 |
| 20260505112339 | 61 | 94 | 0.0 | 2.0 | 0.00 | 9.45 | 1.88 | 81 | 1012.3 |
| 20260505111834 | 61 | 94 | 1.0 | 3.0 | 0.00 | 9.45 | 1.88 | 80 | 1012.3 |
| 20260505111331 | 61 | 108 | 2.0 | 4.0 | 0.00 | 9.45 | 1.88 | 79 | 1012.3 |
| 20260505110831 | 61 | 70 | 2.0 | 4.0 | 0.00 | 9.45 | 1.88 | 81 | 1012.3 |
| 20260505110330 | 61 | 148 | 0.0 | 4.0 | 0.00 | 9.45 | 1.88 | 83 | 1012.5 |
| 20260505101840 | 61 | 88 | 2.0 | 3.0 | 0.00 | 9.45 | 1.88 | 80 | 1012.3 |
| 20260505101332 | 61 | 128 | 0.0 | 3.0 | 0.00 | 9.45 | 1.88 | 81 | 1012.3 |
| 20260505100832 | 61 | 59 | 0.0 | 3.0 | 0.00 | 9.45 | 1.88 | 80 | 1012.3 |
| 20260505100331 | 61 | 86 | 1.0 | 3.0 | 0.00 | 9.45 | 1.88 | 81 | 1012.2 |
| 20260505095842 | 61 | 79 | 2.0 | 3.0 | 0.00 | 9.45 | 1.88 | 80 | 1012.3 |
| 20260505095343 | 62 | 141 | 2.0 | 3.0 | 0.00 | 9.45 | 1.88 | 81 | 1012.2 |
| 20260505094836 | 62 | 89 | 2.0 | 3.0 | 0.00 | 9.45 | 1.88 | 79 | 1012.2 |
| 20260505094333 | 62 | 135 | 0.0 | 0.0 | 0.00 | 9.45 | 1.88 | 79 | 1012.3 |
| 20260505093830 | 61 | 135 | 0.0 | 2.0 | 0.00 | 9.45 | 1.88 | 80 | 1012.2 |
| 20260505093327 | 61 | 135 | 0.0 | 2.0 | 0.00 | 9.45 | 1.88 | 80 | 1012.2 |
| 20260505092824 | 61 | 142 | 1.0 | 4.0 | 0.00 | 9.45 | 1.88 | 82 | 1012.2 |
| 20260505092338 | 61 | 209 | 1.0 | 4.0 | 0.00 | 9.45 | 1.88 | 80 | 1012.2 |
| 20260505091835 | 61 | 157 | 1.0 | 3.0 | 0.00 | 9.45 | 1.88 | 82 | 1012.2 |
| 20260505091334 | 61 | 140 | 2.0 | 3.0 | 0.00 | 9.45 | 1.88 | 81 | 1012.1 |
| 20260505090828 | 61 | 151 | 1.0 | 4.0 | 0.04 | 9.45 | 1.88 | 82 | 1012.0 |
| 20260505090330 | 61 | 106 | 2.0 | 6.0 | 0.08 | 9.45 | 1.88 | 81 | 1012.0 |
| 20260505085843 | 61 | 114 | 2.0 | 7.0 | 0.08 | 9.45 | 1.88 | 83 | 1012.1 |
| 20260505085341 | 61 | 156 | 2.0 | 8.0 | 0.08 | 9.45 | 1.88 | 84 | 1012.1 |
| 20260505084834 | 61 | 78 | 3.0 | 8.0 | 0.08 | 9.45 | 1.88 | 85 | 1012.0 |
| 20260505084328 | 61 | 121 | 4.0 | 8.0 | 0.08 | 9.45 | 1.88 | 87 | 1012.1 |
| 20260505083826 | 61 | 81 | 1.0 | 5.0 | 0.08 | 9.45 | 1.88 | 88 | 1011.9 |
| 20260505083341 | 60 | 50 | 2.0 | 5.0 | 0.08 | 9.45 | 1.88 | 89 | 1011.9 |
| 20260505082839 | 60 | 84 | 2.0 | 4.0 | 0.08 | 9.45 | 1.88 | 89 | 1012.0 |
| 20260505082336 | 59 | 234 | 1.0 | 6.0 | 0.08 | 9.45 | 1.88 | 89 | 1012.0 |
| 20260505081829 | 59 | 132 | 2.0 | 8.0 | 0.08 | 9.45 | 1.88 | 89 | 1011.9 |
| 20260505081325 | 60 | 138 | 1.0 | 5.0 | 0.04 | 9.41 | 1.87 | 90 | 1011.7 |
| 20260505080839 | 60 | 69 | 2.0 | 4.0 | 0.04 | 9.41 | 1.87 | 89 | 1011.6 |
| 20260505080339 | 59 | 56 | 1.0 | 3.0 | 0.00 | 9.37 | 1.87 | 88 | 1011.8 |
| 20260505075838 | 59 | 265 | 2.0 | 3.0 | 0.00 | 9.37 | 1.87 | 89 | 1012.0 |
| 20260505075333 | 60 | 355 | 0.0 | 0.0 | 0.00 | 9.37 | 1.87 | 89 | 1011.7 |
| 20260505074832 | 59 | 355 | 0.0 | 0.0 | 0.00 | 9.37 | 1.87 | 86 | 1011.4 |
| 20260505074327 | 59 | 355 | 0.0 | 0.0 | 0.00 | 9.37 | 1.87 | 87 | 1011.4 |
| 20260505073824 | 59 | 355 | 0.0 | 0.0 | 0.00 | 9.37 | 1.87 | 89 | 1011.4 |
| 20260505073343 | 59 | 355 | 0.0 | 0.0 | 0.00 | 9.37 | 1.87 | 90 | 1011.3 |
| 20260505072836 | 59 | 355 | 0.0 | 0.0 | 0.00 | 9.37 | 1.87 | 89 | 1011.3 |
| 20260505072335 | 59 | 355 | 0.0 | 1.0 | 0.00 | 9.37 | 1.87 | 91 | 1011.2 |
| 20260505071828 | 59 | 355 | 0.0 | 2.0 | 0.00 | 9.37 | 1.87 | 93 | 1011.2 |
| 20260505071327 | 58 | 355 | 0.0 | 3.0 | 0.00 | 9.37 | 1.87 | 93 | 1011.2 |
| 20260505070825 | 58 | 23 | 1.0 | 3.0 | 0.00 | 9.37 | 1.87 | 94 | 1011.3 |
| 20260505070340 | 58 | 11 | 1.0 | 2.0 | 0.00 | 9.37 | 1.87 | 94 | 1011.2 |
| 20260505065837 | 58 | 340 | 1.0 | 3.0 | 0.00 | 9.37 | 1.87 | 95 | 1011.4 |
| 20260505065329 | 57 | 319 | 1.0 | 4.0 | 0.00 | 9.37 | 1.87 | 95 | 1011.3 |
| 20260505064830 | 57 | 322 | 2.0 | 3.0 | 0.00 | 9.37 | 1.87 | 95 | 1011.2 |
| 20260505064330 | 57 | 341 | 0.0 | 3.0 | 0.00 | 9.37 | 1.87 | 96 | 1011.1 |
| 20260505063824 | 57 | 20 | 1.0 | 3.0 | 0.00 | 9.37 | 1.87 | 96 | 1011.1 |
| 20260505063343 | 57 | 347 | 1.0 | 3.0 | 0.00 | 9.37 | 1.87 | 96 | 1011.2 |
| 20260505062834 | 56 | 326 | 2.0 | 3.0 | 0.00 | 9.37 | 1.87 | 96 | 1011.2 |
| 20260505062331 | 56 | 326 | 2.0 | 3.0 | 0.00 | 9.37 | 1.87 | 96 | 1011.0 |
| 20260505061832 | 57 | 341 | 1.0 | 3.0 | 0.00 | 9.37 | 1.87 | 96 | 1011.0 |
| 20260505061329 | 56 | 18 | 0.0 | 2.0 | 0.00 | 9.37 | 1.87 | 96 | 1011.0 |
| 20260505060827 | 56 | 38 | 0.0 | 4.0 | 0.00 | 9.37 | 1.87 | 97 | 1011.0 |
| 20260505060340 | 56 | 11 | 1.0 | 4.0 | 0.00 | 9.37 | 1.87 | 96 | 1010.8 |
| 20260505055835 | 56 | 333 | 2.0 | 3.0 | 0.00 | 9.37 | 1.87 | 96 | 1010.8 |
| 20260505055329 | 56 | 335 | 1.0 | 3.0 | 0.00 | 9.37 | 1.87 | 97 | 1010.9 |
| 20260505054824 | 55 | 323 | 1.0 | 2.0 | 0.00 | 9.37 | 1.87 | 96 | 1010.9 |
| 20260505054340 | 55 | 323 | 0.0 | 1.0 | 0.00 | 9.37 | 1.87 | 96 | 1010.7 |
| 20260505053833 | 55 | 323 | 0.0 | 3.0 | 0.00 | 9.37 | 1.87 | 96 | 1010.5 |
| 20260505053330 | 55 | 323 | 1.0 | 3.0 | 0.00 | 9.37 | 1.87 | 96 | 1010.5 |
| 20260505052828 | 55 | 325 | 1.0 | 3.0 | 0.00 | 9.37 | 1.87 | 96 | 1010.3 |
| 20260505052341 | 55 | 350 | 1.0 | 4.0 | 0.00 | 9.37 | 1.87 | 96 | 1010.2 |
| 20260505051840 | 55 | 324 | 2.0 | 4.0 | 0.00 | 9.37 | 1.87 | 96 | 1010.3 |
| 20260505051335 | 55 | 304 | 1.0 | 3.0 | 0.04 | 9.37 | 1.87 | 96 | 1010.3 |
| 20260505050837 | 55 | 315 | 2.0 | 3.0 | 0.04 | 9.37 | 1.87 | 96 | 1010.3 |
| 20260505050335 | 55 | 341 | 1.0 | 3.0 | 0.04 | 9.37 | 1.87 | 96 | 1010.2 |
| 20260505041325 | 55 | 274 | 6.0 | 9.0 | 0.98 | 9.33 | 1.86 | 96 | 1010.4 |
| 20260505040837 | 55 | 259 | 3.0 | 4.0 | 1.06 | 9.33 | 1.86 | 96 | 1010.4 |
| 20260505040333 | 55 | 161 | 1.0 | 3.0 | 1.22 | 9.33 | 1.86 | 96 | 1010.5 |
| 20260505035826 | 55 | 23 | 1.0 | 5.0 | 1.38 | 9.33 | 1.86 | 96 | 1010.5 |
| 20260505035342 | 55 | 53 | 3.0 | 5.0 | 1.42 | 9.25 | 1.84 | 96 | 1010.8 |
| 20260505034839 | 55 | 105 | 3.0 | 6.0 | 1.38 | 9.13 | 1.82 | 95 | 1011.4 |
| 20260505034329 | 55 | 224 | 4.0 | 6.0 | 1.50 | 9.06 | 1.80 | 95 | 1011.7 |
| 20260505033827 | 55 | 262 | 2.0 | 4.0 | 1.50 | 8.94 | 1.78 | 95 | 1011.7 |
| 20260505033341 | 55 | 290 | 3.0 | 4.0 | 1.42 | 8.82 | 1.76 | 95 | 1011.7 |
| 20260505032840 | 55 | 36 | 2.0 | 4.0 | 1.34 | 8.66 | 1.72 | 95 | 1011.7 |
| 20260505032340 | 55 | 10 | 2.0 | 4.0 | 1.34 | 8.54 | 1.70 | 95 | 1011.9 |
| 20260505031833 | 55 | 65 | 1.0 | 3.0 | 1.38 | 8.46 | 1.69 | 94 | 1012.3 |
| 20260505031331 | 55 | 178 | 1.0 | 3.0 | 1.34 | 8.35 | 1.66 | 94 | 1012.3 |
| 20260505030843 | 55 | 279 | 1.0 | 3.0 | 1.30 | 8.23 | 1.64 | 94 | 1012.3 |
| 20260505030326 | 55 | 231 | 1.0 | 7.0 | 1.30 | 8.11 | 1.61 | 95 | 1012.3 |
| 20260505025842 | 55 | 244 | 4.0 | 10.0 | 1.26 | 7.95 | 1.58 | 94 | 1012.1 |
| 20260505025332 | 55 | 240 | 8.0 | 10.0 | 1.22 | 7.80 | 1.55 | 94 | 1011.9 |
| 20260505024830 | 56 | 279 | 2.0 | 6.0 | 1.26 | 7.72 | 1.54 | 95 | 1012.0 |
| 20260505024326 | 56 | 254 | 3.0 | 6.0 | 1.18 | 7.56 | 1.50 | 95 | 1012.0 |
| 20260505023825 | 56 | 219 | 2.0 | 3.0 | 1.14 | 7.44 | 1.48 | 95 | 1012.0 |
| 20260505023342 | 56 | 290 | 1.0 | 3.0 | 1.18 | 7.40 | 1.47 | 95 | 1012.0 |
| 20260505022839 | 56 | 244 | 1.0 | 4.0 | 1.18 | 7.28 | 1.45 | 95 | 1012.0 |
| 20260505022338 | 56 | 250 | 2.0 | 4.0 | 1.30 | 7.20 | 1.43 | 95 | 1012.0 |
| 20260505021833 | 56 | 314 | 2.0 | 3.0 | 1.38 | 7.09 | 1.41 | 95 | 1012.0 |
| 20260505021328 | 56 | 278 | 1.0 | 7.0 | 1.69 | 7.01 | 1.39 | 95 | 1012.1 |
| 20260505020825 | 56 | 263 | 4.0 | 7.0 | 1.93 | 6.93 | 1.38 | 95 | 1012.2 |
| 20260505020338 | 56 | 271 | 4.0 | 7.0 | 2.01 | 6.81 | 1.35 | 95 | 1012.3 |
| 20260505015833 | 57 | 265 | 4.0 | 7.0 | 1.97 | 6.65 | 1.32 | 95 | 1012.4 |
| 20260505015327 | 57 | 250 | 3.0 | 9.0 | 1.97 | 6.57 | 1.31 | 96 | 1012.5 |
| 20260505014824 | 57 | 288 | 3.0 | 10.0 | 1.93 | 6.46 | 1.28 | 96 | 1012.4 |
| 20260505014325 | 57 | 342 | 6.0 | 10.0 | 1.89 | 6.38 | 1.27 | 96 | 1012.4 |
| 20260505013839 | 57 | 322 | 6.0 | 10.0 | 1.89 | 6.30 | 1.25 | 96 | 1012.4 |
| 20260505013335 | 57 | 332 | 4.0 | 9.0 | 1.81 | 6.18 | 1.23 | 96 | 1012.5 |
| 20260505012825 | 57 | 344 | 3.0 | 10.0 | 1.85 | 6.06 | 1.20 | 96 | 1012.7 |
| 20260505012341 | 57 | 355 | 3.0 | 10.0 | 1.81 | 5.87 | 1.17 | 96 | 1012.8 |
| 20260505011840 | 57 | 327 | 4.0 | 11.0 | 1.77 | 5.71 | 1.13 | 95 | 1012.8 |
| 20260505011332 | 59 | 313 | 4.0 | 14.0 | 1.46 | 5.31 | 1.06 | 95 | 1012.8 |
| 20260505010828 | 60 | 53 | 7.0 | 14.0 | 1.22 | 5.00 | 0.99 | 96 | 1012.9 |
| 20260505010341 | 61 | 76 | 7.0 | 14.0 | 1.18 | 4.80 | 0.95 | 96 | 1012.9 |
| 20260505005837 | 61 | 43 | 6.0 | 14.0 | 1.26 | 4.69 | 0.93 | 96 | 1013.1 |
| 20260505005334 | 61 | 74 | 8.0 | 14.0 | 1.30 | 4.61 | 0.91 | 96 | 1013.3 |
| 20260505004827 | 61 | 92 | 7.0 | 12.0 | 1.30 | 4.53 | 0.90 | 96 | 1013.5 |
| 20260505004343 | 61 | 49 | 8.0 | 13.0 | 1.30 | 4.49 | 0.89 | 96 | 1013.5 |
| 20260505003837 | 61 | 117 | 7.0 | 13.0 | 1.30 | 4.41 | 0.87 | 96 | 1013.6 |
| 20260505003337 | 61 | 84 | 5.0 | 14.0 | 1.30 | 4.33 | 0.86 | 96 | 1013.7 |
| 20260505002834 | 60 | 101 | 7.0 | 14.0 | 1.30 | 4.21 | 0.83 | 96 | 1013.7 |
| 20260505002330 | 60 | 105 | 6.0 | 13.0 | 1.54 | 4.06 | 0.80 | 96 | 1013.7 |